Location: Oak Glen
(34.0495°N, 116.9470°E)
Time: 23:04:31
(UTC-08:00)

Tiangong 2 - Pass Details

Date: 12 October 2017
Orbit: 386 x 390 km, 42.8° (Epoch: 12 December)

Event Time Altitude Azimuth Distance (km) Brightness Sun altitude
Exits shadow 13:05:49 13° 41° (NE) 1,254 4.2 -27.6°
Drops below altitude 10° 13:06:16 10° 45° (NE) 1,418 4.6 -27.5°
Sets 13:08:31 0° 57° (ENE) 2,275 6.0 -27.0°
